Temp
27 28 29 30 31 31 31 31 30 29 32 34 34 36 36 35 37 36 36 41 47 50 52 54 54 54 55 55 56 57 58 58 58 58 58 58 58 58
28 26 27 28 29 28 29 29 29 29 27 34 37 35 37 40 37 36 36 40 43 46 49 51 52 53 53 53 54 55 56 57 58 57 57 57 57 56
25 26 27 27 27 28 28 28 28 27 26 31 35 37 34 34 38 36 35 36 38 43 45 48 50 51 52 52 53 53 54 55 56 56 56 56 56 56
26 26 26 29 26 27 27 26 27 28 27 26 31 33 33 35 33 34 37 36 35 40 44 46 48 50 50 50 51 51 51 52 53 54 55 55 55 55
26 26 26 26 25 26 26 26 27 29 28 27 27 31 33 34 33 32 32 34 35 39 43 44 45 47 49 50 49 49 49 49 50 51 52 52 53 53
25 25 25 25 25 24 25 25 27 26 27 26 27 28 30 33 28 30 32 29 32 35 38 40 43 44 46 49 48 47 47 47 48 49 49 50 50 51
23 24 24 25 27 27 26 25 25 24 24 24 25 27 28 28 28 31 30 32 32 33 33 33 35 37 41 45 45 45 46 47 47 47 47 48 48 48
20 21 21 21 23 25 26 27 27 23 21 21 24 24 26 29 32 30 31 30 28 30 31 33 33 34 37 39 44 46 46 46 46 46 46 47 47 46
19 19 19 21 20 21 22 24 24 25 26 23 20 21 23 26 28 28 29 30 30 34 29 30 31 31 36 39 43 45 45 45 45 45 46 46 46 45
18 18 18 18 19 20 20 19 20 22 23 24 22 22 23 25 25 26 27 28 30 32 31 29 30 31 34 36 41 43 44 45 45 45 45 45 45 44
18 18 18 18 20 23 21 17 18 20 25 27 28 29 30 31 31 26 22 23 23 28 35 31 33 33 30 32 36 42 43 44 44 44 45 44 44 44
16 18 21 21 24 25 21 19 16 18 20 19 21 23 26 25 28 26 23 19 21 22 33 29 31 29 23 28 34 35 38 42 43 44 44 44 44 41
15 17 19 23 25 26 27 22 20 23 22 21 21 21 22 22 23 24 25 24 21 22 31 34 30 31 29 22 24 32 34 37 39 41 43 44 43 42
16 18 19 24 25 26 27 28 29 28 24 20 19 18 18 19 22 23 25 26 27 26 31 31 30 30 29 27 27 25 29 33 34 34 38 42 43 42
20 22 26 27 27 24 25 26 24 22 20 17 17 18 20 21 23 22 23 23 24 26 28 30 31 30 31 28 28 21 22 27 31 33 33 36 38 39
21 19 21 21 20 20 15 17 17 17 16 16 16 19 21 20 18 19 17 18 17 18 25 30 32 32 29 30 29 23 26 23 29 31 33 33 35 38
19 12 8 7 7 8 9 11 12 12 12 14 14 15 16 16 16 18 17 16 14 15 19 26 32 33 32 31 29 29 24 26 27 30 31 31 32 34
10 1 1 3 3 5 5 6 9 10 11 13 13 14 14 15 15 16 16 14 13 15 19 24 28 29 29 30 34 29 28 27 29 30 31 29 29 32
-6 -2 -1 0 1 3 4 5 5 8 12 13 14 14 15 15 15 15 16 17 15 19 22 23 28 27 24 21 20 33 28 26 28 27 29 29 29 30
-12 -3 -2 -0 1 2 3 3 5 7 9 11 15 14 14 15 15 16 18 21 18 20 22 25 26 27 25 22 22 17 30 26 25 25 27 28 29 31
-2 -1 0 1 2 2 3 4 6 7 9 10 12 15 15 16 16 19 21 23 23 23 24 21 26 29 29 24 19 15 22 32 30 27 26 25 22 21
-2 -1 1 2 2 3 3 5 6 7 8 9 10 12 15 17 19 20 21 22 24 25 22 22 23 24 22 22 19 12 17 24 28 29 29 28 21 17
-3 -1 0 1 3 3 4 5 6 8 9 9 10 10 12 12 15 18 21 23 21 22 20 18 20 21 22 21 17 17 18 20 21 19 19 26 23 24
MSLP
1028.26 1027.96 1027.88 1027.46 1027.19 1026.87 1026.64 1026.37 1025.87 1024.35 1022.25 1021.64 1021.87 1020.91 1020.82 1020.49 1020.09 1019.78 1019.65 1019.42 1019.42 1019.36 1019.07 1018.97 1019.04 1019.23 1019.41 1019.60 1019.80 1020.00 1020.04 1020.02 1020.16 1020.44 1020.51 1020.68 1020.94 1021.17
1028.02 1027.82 1027.68 1027.29 1026.94 1026.52 1026.23 1026.00 1025.64 1025.27 1023.67 1021.89 1021.01 1020.77 1020.39 1019.94 1019.64 1019.42 1019.13 1018.73 1018.58 1018.70 1018.72 1018.44 1018.28 1018.39 1018.57 1018.81 1018.94 1019.16 1019.37 1019.42 1019.51 1019.85 1020.09 1020.24 1020.39 1020.78
1027.88 1027.72 1027.46 1027.14 1026.65 1026.25 1025.85 1025.66 1025.16 1024.80 1023.65 1022.14 1021.07 1020.25 1020.03 1019.63 1019.17 1018.82 1018.60 1018.43 1017.99 1017.77 1017.84 1017.82 1017.65 1017.54 1017.67 1017.88 1018.06 1018.20 1018.48 1018.72 1018.85 1019.15 1019.48 1019.82 1020.06 1020.26
1027.76 1027.50 1027.07 1026.69 1026.29 1025.95 1025.64 1025.06 1024.47 1023.97 1023.40 1022.02 1021.47 1020.32 1019.69 1019.38 1018.86 1018.43 1018.01 1017.71 1017.51 1017.13 1016.76 1016.73 1016.77 1016.73 1016.67 1016.72 1017.01 1017.30 1017.63 1017.96 1018.21 1018.50 1018.75 1019.12 1019.50 1019.81
1027.55 1027.16 1026.71 1026.39 1025.95 1025.60 1025.20 1024.49 1023.87 1023.21 1022.60 1021.72 1020.69 1020.50 1019.60 1019.13 1018.37 1017.80 1017.45 1017.06 1016.60 1016.31 1015.94 1015.64 1015.70 1015.83 1015.74 1015.78 1016.05 1016.30 1016.57 1016.96 1017.41 1017.71 1018.12 1018.47 1018.90 1019.23
1027.35 1027.00 1026.60 1026.20 1025.67 1025.14 1024.52 1023.92 1023.37 1022.70 1022.12 1021.37 1020.32 1019.91 1019.48 1018.69 1018.17 1017.61 1016.77 1016.50 1015.88 1015.53 1015.11 1014.92 1014.73 1014.42 1014.51 1014.59 1015.06 1015.55 1015.62 1015.99 1016.27 1016.66 1017.18 1017.65 1018.15 1018.71
1026.89 1026.57 1026.14 1025.74 1025.20 1024.62 1024.04 1023.29 1022.93 1022.32 1021.71 1020.88 1019.82 1019.29 1018.44 1018.39 1017.92 1017.06 1016.16 1015.71 1014.85 1014.74 1014.40 1014.06 1014.24 1013.81 1013.40 1013.49 1013.64 1014.28 1014.94 1015.14 1015.62 1015.79 1016.27 1016.76 1017.13 1017.63
1026.39 1026.05 1025.86 1025.37 1024.74 1024.21 1023.69 1023.13 1022.60 1021.82 1021.19 1020.49 1019.39 1018.71 1017.90 1017.73 1017.28 1016.69 1015.93 1015.51 1014.26 1013.46 1013.68 1012.93 1013.16 1012.60 1012.32 1012.21 1012.28 1012.80 1013.48 1014.08 1014.38 1014.94 1015.19 1015.70 1016.16 1016.73
1026.24 1025.73 1025.20 1024.83 1024.49 1023.92 1023.44 1022.82 1022.21 1021.88 1021.26 1020.60 1019.57 1018.89 1018.26 1017.87 1017.41 1016.48 1015.64 1014.89 1013.62 1013.10 1013.44 1012.32 1012.34 1011.65 1011.42 1011.40 1011.45 1011.59 1011.78 1012.44 1013.15 1013.62 1014.26 1014.77 1015.36 1015.90
1025.93 1025.42 1024.83 1024.21 1023.86 1023.23 1022.47 1021.76 1021.22 1020.83 1020.48 1019.94 1019.18 1018.37 1017.93 1017.64 1017.26 1016.66 1015.78 1014.62 1013.26 1012.41 1012.32 1011.34 1011.33 1010.41 1010.72 1010.56 1010.55 1010.58 1010.89 1011.24 1011.65 1012.28 1012.75 1013.45 1014.16 1014.95
1025.32 1024.82 1024.14 1023.45 1022.99 1022.12 1021.09 1020.43 1019.90 1019.44 1019.14 1018.46 1017.67 1017.00 1016.36 1015.98 1015.62 1015.45 1014.59 1014.19 1012.07 1011.14 1011.38 1010.75 1009.78 1009.59 1009.64 1009.47 1009.30 1009.43 1009.62 1009.99 1010.51 1011.13 1011.53 1012.11 1012.79 1013.78
1024.28 1023.56 1022.97 1022.18 1021.40 1020.59 1019.86 1019.30 1018.43 1017.89 1017.49 1016.87 1016.25 1015.67 1015.29 1015.01 1014.85 1014.70 1014.27 1013.27 1012.06 1010.83 1009.63 1009.58 1009.01 1009.54 1009.18 1008.08 1008.23 1008.39 1008.55 1008.93 1009.26 1009.80 1010.37 1011.11 1011.76 1012.80
1022.85 1022.12 1021.47 1020.87 1020.07 1019.26 1018.43 1017.67 1016.82 1016.13 1015.43 1014.78 1014.16 1013.82 1013.68 1013.56 1013.42 1013.21 1012.87 1012.32 1011.17 1009.68 1009.42 1008.42 1007.83 1007.82 1007.91 1007.54 1007.46 1007.34 1007.52 1007.86 1008.27 1008.66 1009.02 1009.70 1010.45 1011.10
1021.73 1021.01 1020.20 1019.40 1018.38 1017.44 1016.59 1015.83 1014.90 1014.21 1013.76 1013.41 1013.00 1012.60 1012.32 1012.02 1011.66 1011.43 1011.13 1010.69 1010.07 1008.88 1008.19 1007.89 1006.19 1006.42 1006.20 1006.77 1007.00 1006.90 1007.15 1007.50 1007.84 1007.91 1007.95 1008.33 1009.07 1009.93
1020.78 1019.80 1018.58 1017.72 1017.01 1016.42 1015.98 1015.25 1014.53 1013.80 1013.13 1012.33 1011.60 1010.98 1010.77 1010.42 1010.20 1009.94 1009.58 1009.24 1008.69 1007.80 1007.07 1006.10 1005.51 1005.08 1004.59 1004.49 1005.28 1006.07 1006.86 1006.77 1007.03 1007.33 1007.41 1007.38 1007.48 1008.42
1019.61 1018.68 1018.12 1017.84 1017.44 1016.53 1015.94 1015.15 1014.48 1013.78 1012.95 1011.91 1010.94 1010.27 1009.78 1009.29 1008.92 1008.77 1008.26 1007.98 1007.32 1006.00 1005.13 1004.43 1003.88 1003.76 1003.51 1003.50 1003.93 1004.57 1005.08 1005.65 1006.26 1006.43 1006.68 1006.76 1006.77 1007.02
1019.02 1018.94 1018.65 1018.18 1017.37 1016.54 1015.72 1015.02 1014.23 1013.37 1012.43 1011.37 1010.43 1009.56 1008.83 1008.42 1007.73 1007.40 1006.97 1006.52 1005.78 1004.79 1003.68 1002.69 1001.55 1001.82 1002.06 1002.01 1002.71 1003.16 1003.90 1004.52 1004.96 1005.31 1005.88 1005.89 1005.90 1006.06
1019.77 1019.92 1019.27 1018.66 1017.83 1016.88 1015.97 1014.93 1014.01 1013.10 1011.96 1010.75 1009.58 1008.57 1007.81 1007.14 1006.39 1005.78 1005.34 1004.82 1004.07 1003.23 1002.34 1001.67 999.75 1000.56 1000.86 1000.81 1001.14 1001.90 1002.66 1003.25 1003.91 1004.42 1004.74 1004.97 1005.13 1005.31
1021.22 1020.57 1019.87 1019.02 1018.05 1017.01 1016.04 1015.06 1013.87 1012.71 1011.46 1010.02 1008.47 1007.49 1006.79 1005.94 1005.25 1004.25 1003.28 1002.60 1002.04 1001.38 1000.45 1000.25 999.53 999.39 999.50 999.67 1000.59 1000.91 1001.43 1002.28 1003.03 1003.58 1003.82 1003.89 1004.02 1004.54
1021.44 1020.77 1019.88 1018.95 1017.90 1016.90 1015.82 1014.71 1013.42 1012.15 1010.83 1009.43 1007.67 1006.57 1005.81 1005.04 1003.98 1002.86 1001.66 1000.00 999.77 999.45 998.74 998.12 997.81 998.17 998.57 999.06 1000.23 1000.77 1000.63 1001.36 1001.94 1002.38 1002.87 1003.38 1003.77 1004.34
1021.02 1020.29 1019.56 1018.59 1017.58 1016.56 1015.46 1014.25 1013.10 1011.72 1010.43 1009.05 1007.54 1006.05 1004.86 1003.95 1002.75 1001.59 1000.37 999.41 998.44 998.06 997.43 997.25 996.72 997.04 997.75 998.83 999.90 1000.64 1000.46 1000.56 1001.11 1001.58 1002.26 1002.92 1003.72 1004.41
1021.02 1020.14 1019.06 1018.17 1017.23 1016.22 1015.04 1013.84 1012.47 1011.16 1009.86 1008.64 1007.35 1006.07 1004.70 1003.42 1001.96 1000.53 999.51 998.65 997.81 997.14 997.01 997.32 997.50 997.81 998.42 998.85 999.54 1000.27 1000.47 1000.72 1001.09 1001.58 1001.96 1002.26 1003.22 1003.95
1020.78 1019.85 1018.82 1017.81 1016.88 1015.89 1014.72 1013.51 1012.23 1010.88 1009.68 1008.46 1007.24 1005.96 1004.67 1003.37 1002.05 1000.66 999.33 998.21 997.66 997.43 997.43 997.69 997.90 998.21 998.54 999.05 999.75 1000.27 1000.61 1000.98 1001.43 1002.24 1002.99 1003.05 1003.62 1004.14
Wind_Speed
5 4 4 4 3 3 4 3 3 7 11 1 3 3 5 4 8 6 6 13 21 23 21 21 22 23 22 22 22 22 23 22 20 19 18 17 16 16
4 6 5 4 6 4 4 4 4 6 9 4 7 5 5 6 7 8 9 15 18 21 23 24 23 25 24 24 23 23 24 24 23 21 21 19 18 18
6 5 8 6 6 6 5 5 6 5 10 10 10 10 7 8 9 7 7 8 8 18 23 25 26 25 25 24 25 24 25 25 24 23 22 21 21 20
9 9 10 7 8 7 7 10 9 8 9 15 11 12 12 10 8 9 9 7 8 14 21 24 26 27 27 27 26 24 23 23 22 22 23 23 23 21
10 10 12 11 11 9 9 10 9 9 10 11 12 9 11 9 10 8 8 10 7 16 22 24 24 26 28 28 27 26 24 23 22 22 21 21 23 22
11 12 12 12 13 12 11 12 11 10 10 11 11 10 10 10 5 9 11 5 8 7 14 17 17 22 28 29 29 26 26 25 25 24 22 21 21 21
12 12 11 14 24 22 14 14 14 12 10 11 13 12 11 9 9 7 10 9 8 7 8 8 8 10 13 25 24 26 26 27 27 26 24 22 23 23
14 13 12 14 16 22 24 28 25 17 15 11 12 13 15 13 10 10 11 10 13 5 8 11 8 10 10 11 22 28 28 29 29 28 27 26 25 25
14 14 14 11 13 13 19 24 22 24 26 18 18 17 17 14 13 14 12 12 14 9 6 10 5 11 9 11 25 28 30 31 31 30 29 28 27 26
13 14 14 15 14 16 16 16 15 14 15 13 16 16 17 15 15 16 18 17 14 12 7 15 5 11 6 9 24 27 29 31 32 32 31 31 29 27
13 13 14 15 21 26 18 16 14 14 17 27 30 32 33 32 28 13 12 14 17 15 13 13 13 12 6 9 11 28 29 31 32 32 32 32 31 29
12 14 19 21 26 27 18 15 16 15 15 15 16 21 24 20 28 18 13 15 15 17 13 12 13 7 6 6 9 10 12 28 30 32 32 32 31 15
10 10 11 25 29 29 29 17 19 20 21 18 16 13 13 13 11 12 15 15 16 18 16 14 11 12 11 6 2 7 9 11 14 19 31 32 32 26
13 11 13 28 31 32 27 29 33 29 13 12 12 12 12 12 12 13 16 16 16 21 18 22 13 13 13 11 10 2 6 8 9 11 13 22 32 34
12 20 32 32 31 22 23 31 28 13 13 12 13 13 13 13 15 15 16 18 21 22 18 23 19 11 13 13 12 4 5 7 9 9 9 12 15 15
20 13 16 21 25 21 14 14 10 11 12 12 14 13 13 12 10 11 13 12 15 16 21 23 23 19 15 12 10 6 7 7 10 12 11 9 11 14
17 10 10 10 9 10 10 10 10 11 11 11 12 13 12 12 13 12 12 12 14 15 16 17 22 20 14 15 11 12 10 9 9 12 12 12 10 12
10 7 9 9 10 11 11 12 11 13 12 12 13 11 12 12 13 13 13 13 14 15 14 16 11 13 13 13 22 12 10 11 9 11 11 12 11 11
4 7 8 9 10 11 11 11 13 12 15 14 11 11 11 12 14 13 14 13 13 14 14 15 13 12 12 12 3 15 9 9 10 10 11 11 10 10
3 6 9 9 10 10 11 11 12 12 12 13 13 11 11 12 13 13 14 12 13 13 13 10 10 10 12 11 7 4 16 10 10 11 10 7 1 9
8 8 8 9 10 10 11 11 12 12 13 12 12 11 11 11 12 13 12 16 12 10 10 8 12 15 6 4 3 1 4 18 13 11 8 8 6 5
7 9 9 9 10 10 11 11 12 12 12 11 11 11 11 11 11 11 10 10 10 8 4 4 3 4 2 5 4 4 3 4 10 8 13 12 6 8
8 9 10 10 10 10 11 11 12 11 11 12 11 11 11 11 11 10 10 9 6 1 2 2 2 2 3 2 5 4 5 6 4 7 7 5 5 6
Wind_Direction
328 323 307 298 282 273 274 260 251 303 303 273 278 270 285 284 269 260 244 251 259 261 248 240 233 239 239 241 242 244 243 240 233 231 232 228 228 228
320 317 305 296 302 286 276 269 247 258 279 326 283 270 262 277 270 262 251 249 255 257 255 245 239 237 236 237 238 240 240 239 232 229 228 225 222 222
313 293 296 286 295 295 294 279 275 253 269 284 287 294 283 267 273 269 258 254 254 248 249 251 245 238 233 232 234 233 234 236 233 228 227 224 224 220
307 302 300 302 295 287 281 283 279 272 273 279 279 289 282 285 259 261 268 252 245 248 247 249 248 244 236 229 228 227 229 232 233 229 226 222 224 222
301 299 302 305 298 293 286 284 281 278 277 278 281 278 285 287 281 269 257 257 247 251 254 252 248 247 244 236 230 224 221 223 227 226 227 222 224 222
302 298 296 292 291 292 287 283 282 282 281 279 282 280 273 278 259 278 276 242 254 237 248 247 241 237 240 240 235 229 219 218 220 220 220 217 216 222
306 304 299 298 299 296 294 290 286 282 278 277 280 280 274 268 264 273 268 281 257 233 243 240 234 235 239 241 237 227 224 219 221 219 218 214 209 212
304 304 300 293 293 298 298 297 292 292 287 287 284 277 278 280 273 271 272 275 281 195 224 250 217 237 234 227 224 226 222 221 217 219 216 214 210 208
300 300 299 297 298 292 290 289 290 286 282 283 281 276 285 287 300 297 269 261 263 264 215 259 207 239 232 233 231 227 220 219 219 216 217 215 213 211
292 293 293 293 288 287 285 279 275 270 268 266 266 274 271 273 267 271 281 291 282 275 233 262 219 240 219 230 232 231 229 224 219 217 213 213 212 211
291 285 282 285 286 287 282 279 277 275 271 274 276 279 281 284 282 284 270 263 270 261 241 248 252 258 207 224 221 229 229 226 224 221 217 212 209 207
284 283 281 286 289 291 287 283 279 273 270 265 262 264 268 267 269 268 274 272 275 272 254 233 241 235 259 216 217 216 221 227 226 223 221 216 208 202
284 288 284 288 292 290 286 278 271 272 266 267 265 262 257 258 257 253 254 258 263 262 266 248 238 226 234 250 270 212 208 217 215 226 223 218 209 202
293 288 285 285 285 286 289 290 293 296 290 282 276 268 263 258 259 255 255 261 265 265 260 264 242 224 219 231 234 167 197 212 210 217 218 216 211 209
292 289 298 301 303 310 306 300 303 294 286 274 267 267 266 268 267 266 263 265 265 270 269 252 246 244 224 213 219 172 145 206 206 213 215 214 202 201
292 291 316 323 312 303 308 301 294 294 291 284 281 281 281 273 265 261 264 264 263 261 258 259 238 236 230 228 211 195 185 183 196 208 212 217 208 202
332 330 329 320 314 310 306 304 303 299 293 289 284 278 273 270 267 263 261 262 261 266 268 269 223 225 234 216 217 213 192 202 192 199 201 213 206 200
335 331 316 314 312 312 310 308 304 302 293 286 280 269 267 266 267 265 256 249 254 255 256 265 201 216 222 224 213 207 201 206 199 196 201 208 209 203
323 312 306 309 308 308 306 304 303 302 301 294 277 272 269 266 268 268 266 252 245 256 247 254 229 211 221 222 219 222 201 193 189 196 199 204 212 206
260 293 303 304 305 303 304 304 304 305 305 305 296 274 269 269 273 272 273 272 228 241 242 222 193 203 211 212 197 223 198 180 185 193 198 201 193 161
315 310 303 303 302 301 302 301 301 302 305 305 308 306 281 272 271 273 280 299 246 239 251 195 198 196 200 85 131 119 202 208 196 192 187 184 166 155
304 304 307 307 305 305 304 305 305 310 312 310 310 311 310 309 302 290 276 281 293 239 181 169 120 135 130 187 170 150 160 176 185 203 190 162 166 183
308 309 310 310 308 307 307 310 307 306 312 311 311 311 311 311 308 302 302 290 268 313 106 116 125 130 170 150 128 138 141 145 125 92 50 101 84 79